ICEYE-X38

导读 | 星芒AI

ICEYE-X38 是 ICEYE 公司研发的一颗合成孔径雷达(SAR)卫星,具备高分辨率和全天候成像能力。该卫星采用小型卫星平台,支持亚米级分辨率,可在任何天气和光照条件下提供地球表面的清晰图像。ICEYE-X38 用于商业遥感服务,广泛应用于灾害监测、环境管理、农业和安全等领域。其灵活性和快速响应能力使其成为全球遥感数据获取的重要工具。

基本信息
目录编号:
59100
目录名称:
ICEYE-X38
国际标识:
2024-043C
轨道中心:
EARTH
卫星名称:
ICEYE-X38
卫星全名:
--
卫星状态:
在轨 (已飞行604 天)
发射日期:
2024-03-04 UTC
国别 :
(FI)
星等 :
--
轨道信息
数据来源 国际轨道数据
星历时间: 2025-10-28T23:37:34+0800
15小时前
查看轨道信息
半长轴: 6916.675km
偏心率: 0.0003415
轨道倾角: 97.814°
近地点辐角 143.592°
升交点赤经 75.039°
平近点角 216.554°
近地点: 536.177km
远地点: 540.903km
周期: 95.413分钟
每日圈数: 15.092346
详细信息
使用方式:
暂无
2D轨道图
3D轨道图
轨道高度分析图
轨道倾角分析图
轨道综合分析图
查看轨道综合分析图